This is the latest recevied weather packets stored in our database for station/object NO9B. If no packets are shown the sender has not sent any weather packets the latest 10 day(s).
| Time | Temp. | Humidity | Pressure | Rain* | Wind** | Luminosity | Snow |
|---|---|---|---|---|---|---|---|
| 1788276534 | 29.44° C | 84% | 1016.2 hPa | 0 mm | - | 89 W/m² | - |
| 1788276229 | 29.44° C | 84% | 1016 hPa | 0 mm | - | 69 W/m² | - |
| 1788275924 | 29.44° C | 83% | 1015.8 hPa | 0 mm | - | 74 W/m² | - |
| 1788275624 | 29.44° C | 82% | 1015.9 hPa | 0 mm | - | 89 W/m² | - |
| 1788275323 | 29.44° C | 82% | 1015.9 hPa | 0 mm | - | 82 W/m² | - |
| 1788275021 | 28.89° C | 84% | 1015.9 hPa | 0 mm | - | 107 W/m² | - |
| 1788274719 | 28.89° C | 85% | 1015.9 hPa | 0 mm | - | 82 W/m² | - |
| 1788274419 | 28.89° C | 85% | 1015.9 hPa | 0 mm | - | 103 W/m² | - |
| 1788274114 | 28.33° C | 85% | 1016 hPa | 0 mm | - | 95 W/m² | - |
| 1788273809 | 28.33° C | 86% | 1015.9 hPa | 0 mm | - | 47 W/m² | - |
| 1788273505 | 27.78° C | 87% | 1015.9 hPa | 0 mm | - | 30 W/m² | - |
| 1788273201 | 27.78° C | 87% | 1015.9 hPa | 0 mm | - | 71 W/m² | - |
| 1788272897 | 27.78° C | 87% | 1015.8 hPa | 0 mm | - | 84 W/m² | - |
| 1788272596 | 27.78° C | 87% | 1015.8 hPa | 0 mm | - | 87 W/m² | - |
| 1788272291 | 27.22° C | 88% | 1015.9 hPa | 0 mm | - | 99 W/m² | - |
| 1788271986 | 27.22° C | 89% | 1016.1 hPa | 0 mm | - | 46 W/m² | - |
| 1788271685 | 26.67° C | 89% | 1015.8 hPa | 0 mm | - | 34 W/m² | - |
| 1788271384 | 26.67° C | 89% | 1015.9 hPa | 0 mm | - | 30 W/m² | - |
| 1788271079 | 26.67° C | 89% | 1015.9 hPa | 0 mm | - | 29 W/m² | - |
| 1788270779 | 26.67° C | 90% | 1015.9 hPa | 0 mm | - | 37 W/m² | - |
| 1788270476 | 26.11° C | 91% | 1015.9 hPa | 0 mm | - | 40 W/m² | - |
| 1788270175 | 26.11° C | 91% | 1015.9 hPa | 0 mm | - | 47 W/m² | - |
| 1788269875 | 26.11° C | 91% | 1016 hPa | 0 mm | - | 42 W/m² | - |
| 1788269574 | 26.11° C | 91% | 1016 hPa | 0 mm | - | 40 W/m² | - |
| 1788269273 | 25.56° C | 93% | 1015.9 hPa | 0 mm | - | 50 W/m² | - |
* Rain latest hour (hover to see other rain measurements)
** Current wind speed in m/s (hover to see current wind gust speed)